Powrót do katalogu

COSMOS 1275 DEB

LostPO
NORAD 42169·DEBRIS·🇷🇺 Russia

Wystrzelony Jun 4, 1981 z Plesetsk Cosmodrome

Loading…

Następne Przeloty (najbliższe 24 godziny)

TLE

NieaktualneSource: Space-Track

Epoka: May 6, 2024, 01:14 UTC

1 42169U 81053SH  24127.05190769  .00013584  00000-0  34811-2 0  9992
2 42169  82.8698  44.8868 0018976 172.9726 187.1742 14.50146059547223

Śledź COSMOS 1275 DEB w czasie rzeczywistym z AllMySat

Download on the App Store